Central Park, NY

3:31 PM EST on November 18, 2017 (GMT -0500)
Central Park

Weather History for KNYC - March, 2014

Change the Weather History Date:

Thursday, March 20, 2014

  Actual Average Record
Temperature  
Mean Temperature 47 °F 44 °F  
Max Temperature 54 °F 51 °F 83 °F (1945)
Min Temperature 40 °F 36 °F 11 °F (1885)
Degree Days  
Heating Degree Days 18 21  
Month to date heating degree days 574 486  
Since 1 July heating degree days 4244 4008  
Cooling Degree Days 0 0  
Month to date cooling degree days 0 0  
Year to date cooling degree days 0 0  
Moisture  
Dew Point 34 °F    
Average Humidity 63    
Maximum Humidity 93    
Minimum Humidity 32    
Precipitation  
Precipitation 0.00 in 0.15 in 1.93 in (1913)
Month to date precipitation 1.31 2.68  
Year to date precipitation 9.58 9.42  
Snow  
Snow 0.00 in 0.10 in 4.70 in (1958)
Month to date snowfall 0.1 3.1  
Since 1 July snowfall 57.4 24.4  
Snow Depth 0.00 in    
Sea Level Pressure  
Sea Level Pressure 29.79 in    
Wind  
Wind Speed 8 mph (WNW)    
Max Wind Speed 20 mph    
Max Gust Speed 32 mph    
Visibility 6 miles    
Events Rain    
T = Trace of Precipitation, MM = Missing Value Source: NWS Daily Summary

Daily Weather History Graph

Daily Weather History Graph

Search for Another Location

Airport or City:

Trip Planner

Search our weather history database for the weather conditions in past years. The results will help you decide how hot, cold, wet, or windy it might be!

Date:

Astronomy

Mar. 20, 2014 Rise Set
Actual Time 6:59 AM EDT 7:08 PM EDT
Civil Twilight 6:32 AM EDT 7:35 PM EDT
Nautical Twilight 6:00 AM EDT 8:07 PM EDT
Astronomical Twilight 5:27 AM EDT 8:40 PM EDT
Moon 11:26 PM EDT (3/20) 9:02 AM EDT (3/20)
Length of Visible Light 13h 03m
Length of Day
12h 08m
Waning Gibbous, 84% of the Moon is Illuminated
Mar 20
Waning Gibbous
Mar 23
Last Quarter
Mar 30
New
Apr 7
First Quarter
Apr 15
Full

Hourly Weather History & Observations

Time (EDT) Temp. Windchill Dew Point Humidity Pressure Visibility Wind Dir Wind Speed Gust Speed Precip Events Conditions
12:01 AM 43.0 °F 41.3 °F 39.9 °F 89% 29.85 in 1.2 mi NE 3.5 mph - 0.04 in Rain Heavy Rain
12:08 AM 43.0 °F 39.5 °F 39.9 °F 89% 29.86 in 0.8 mi North 5.8 mph - 0.08 in Rain Rain
12:16 AM 43.0 °F 39.5 °F 41.0 °F 93% 29.85 in 1.5 mi ENE 5.8 mph - 0.09 in Rain Light Rain
12:24 AM 43.0 °F 40.3 °F 41.0 °F 93% 29.85 in 2.5 mi NE 4.6 mph - 0.10 in Rain Light Rain
12:51 AM 42.1 °F 37.7 °F 39.9 °F 92% 29.80 in 3.0 mi East 6.9 mph - 0.13 in   Overcast
1:40 AM 42.1 °F 38.4 °F 39.9 °F 92% 29.80 in 2.5 mi ENE 5.8 mph - N/A   Overcast
1:51 AM 42.1 °F - 39.9 °F 92% 29.77 in 2.5 mi Calm Calm - N/A   Overcast
2:02 AM 42.1 °F - 39.0 °F 89% 29.79 in 3.0 mi Calm Calm - N/A   Overcast
2:51 AM 41.0 °F - 39.0 °F 93% 29.75 in 2.5 mi Calm Calm - N/A   Overcast
3:22 AM 39.9 °F - 37.9 °F 93% 29.78 in 3.0 mi Calm Calm - N/A   Overcast
3:32 AM 41.0 °F - 39.0 °F 93% 29.77 in 2.0 mi Calm Calm - N/A   Overcast
3:51 AM 39.9 °F - 37.9 °F 93% 29.74 in 2.5 mi Calm Calm - N/A   Overcast
4:05 AM 39.9 °F - 37.9 °F 93% 29.76 in 1.8 mi Calm Calm - N/A   Overcast
4:12 AM 39.9 °F - 37.9 °F 93% 29.76 in 2.0 mi Calm Calm - N/A   Overcast
4:35 AM 39.9 °F 35.8 °F 37.9 °F 93% 29.76 in 3.0 mi WNW 5.8 mph - N/A   Overcast
4:51 AM 39.9 °F 35.8 °F 37.9 °F 93% 29.74 in 4.0 mi WNW 5.8 mph - N/A   Overcast
5:51 AM 41.0 °F 38.0 °F 37.9 °F 89% 29.75 in 4.0 mi WNW 4.6 mph - N/A   Overcast
5:58 AM 41.0 °F 39.0 °F 39.0 °F 93% 29.77 in 4.0 mi WNW 3.5 mph - N/A   Overcast
6:06 AM 42.1 °F 40.2 °F 39.0 °F 89% 29.77 in 5.0 mi WNW 3.5 mph - N/A   Overcast
6:51 AM 42.1 °F 40.2 °F 39.0 °F 89% 29.74 in 6.0 mi Variable 3.5 mph - N/A   Overcast
7:51 AM 43.0 °F 39.5 °F 39.0 °F 86% 29.76 in 6.0 mi West 5.8 mph - N/A   Overcast
8:28 AM 43.0 °F 37.7 °F 39.0 °F 86% 29.79 in 8.0 mi West 9.2 mph 17.3 mph N/A   Overcast
8:51 AM 44.1 °F 40.8 °F 39.0 °F 82% 29.77 in 7.0 mi Variable 5.8 mph - N/A   Overcast
9:34 AM 45.0 °F 43.5 °F 39.0 °F 80% 29.79 in 8.0 mi Variable 3.5 mph 23.0 mph N/A   Partly Cloudy
9:51 AM 46.0 °F 44.8 °F 37.9 °F 73% 29.78 in 9.0 mi Variable 3.5 mph - N/A   Clear
10:51 AM 48.9 °F - 36.0 °F 61% 29.77 in 10.0 mi Variable 6.9 mph 24.2 mph N/A   Mostly Cloudy
11:51 AM 50.0 °F - 30.9 °F 48% 29.76 in 10.0 mi West 10.4 mph - N/A   Partly Cloudy
12:51 PM 50.0 °F - 27.0 °F 41% 29.76 in 10.0 mi WNW 9.2 mph 18.4 mph N/A   Overcast
1:51 PM 52.0 °F - 25.0 °F 35% 29.75 in 10.0 mi WNW 10.4 mph 24.2 mph N/A   Mostly Cloudy
2:51 PM 51.1 °F - 24.1 °F 35% 29.74 in 10.0 mi West 13.8 mph 27.6 mph N/A   Partly Cloudy
3:51 PM 51.1 °F - 26.1 °F 38% 29.74 in 10.0 mi WNW 16.1 mph 26.5 mph N/A   Mostly Cloudy
4:51 PM 52.0 °F - 24.1 °F 34% 29.76 in 10.0 mi West 13.8 mph 27.6 mph N/A   Partly Cloudy
5:51 PM 50.0 °F - 21.9 °F 33% 29.78 in 10.0 mi WNW 8.1 mph 25.3 mph N/A   Scattered Clouds
6:51 PM 48.9 °F - 21.0 °F 33% 29.80 in 9.0 mi WNW 11.5 mph 21.9 mph N/A   Partly Cloudy
7:51 PM 46.9 °F - 21.0 °F 36% 29.83 in 10.0 mi Variable 6.9 mph 20.7 mph N/A   Mostly Cloudy
8:51 PM 45.0 °F 39.3 °F 21.0 °F 39% 29.87 in 10.0 mi West 11.5 mph 23.0 mph N/A   Clear
9:51 PM 44.1 °F 37.4 °F 21.0 °F 40% 29.89 in 10.0 mi West 13.8 mph 23.0 mph N/A   Clear
10:51 PM 43.0 °F 37.2 °F 21.0 °F 42% 29.90 in 10.0 mi West 10.4 mph 17.3 mph N/A   Partly Cloudy
11:51 PM 42.1 °F 37.1 °F 21.0 °F 43% 29.90 in 10.0 mi WNW 8.1 mph - N/A   Mostly Cloudy